STARLINK-11138, 59949

Orbit data source: Space-Track

STARLINK-11138, 59949 is a payload satellite owned by SpaceX/Seattle (US) in LEO that was launched on Wed, 05 Jun 2024 UTC via an FALCON 9 launch vehicle from the Air Force Eastern Test Range (AFETR). Payload-class satellites include a variety of spacecraft equipped with specific instruments for various scientific and technological missions. These include communications satellites like Starlink; space stations such as the ISS; scientific satellites like the Hubble; Earth observation satellites from companies like Planet Labs, Umbra, and HawkEye 360; GPS; miniature CubeSats for education and research; and military/defense satellites.

Loading next visibility...
Identifier
59949, 2024-107E
Orbit
LEO
Country
Flag of USUS
Related business
Manufacturer
SpaceX/Seattle
Mission
Operational Commercial Communications
Bus & Motor
STARLINK V2MD, Unknown motor
Mass
960 kg wet, ~910 kg dry
Launch date (UTC)
2024-06-05 (2 years ago)
Launch vehicle
FALCON 9
Launch site
Air Force Eastern Test Range (AFETR)
Object type
Payload
Rocket body
Debris
Shape & HBR
Box + 2 Pan, 18.1 m
Radar Cross Section
36.964 m², Large (>1 m²)

Expand to show TLE details & history
Last TLE update: 3 days ago

TLE from 3 days ago
0 STARLINK-11138
1 59949U 24107E   26170.54341724  .00000672  00000-0  10407-4 0  9997
2 59949  53.1594 109.1296 0001145  97.1147 263.0001 15.69710173118207
Epoch: 2026-06-19T13:02Z
TLE epoch observation values (Epoch: 2026-06-19T13:02:31.249Z)
Latitude
-0.00003°
Longitude
5.72849°
Altitude
360.735 km
Speed
7.694 km/s
True Right ascension
07h 16m 31s
True Declination
0° 00' 00"
Sunlit
Object was in daylight at epoch
Visualization orbit readout
Latitude
Unknown
Longitude
Unknown
Altitude
Unknown
Speed
Unknown
Apparent Right ascension
Unknown
Apparent Declination
Unknown
Sunlit
N/A
Visualization observer readout
Local Sidereal Time
21:35:58
Azimuth
Unknown
Elevation
Unknown
Doppler factor
Unknown
Orbital elements
Apogee altitude
360.759 km
Perigee altitude
359.216 km
Semi-major axis
6,738.124 km
Eccentricity
0.00011
Inclination
53.1594°
RAAN
109.1296°
Arg. of periapsis
97.1147°
True anomaly
262.98708°
Mean anomaly
263.0001°
Eccentric anomaly
262.99359°
Mean motion
3.92405 °/min
Orbital period
91.74 mins
BSTAR
0.000010407
Loading maneuver chart data...
Computing Atmospheric mass density...
Loading historical data...
Loading historical data...
Loading historical data...
Loading historical data...
Loading historical data...
Loading historical data...
Loading historical data...

Documentation

Showing up to 5 results
|